Demopolis Municipal Airport, AL

2:42 AM CST on December 09, 2019 (GMT -0600)
Demopolis Municipal Airport

Weather History for KDYA - November, 2019

Change the Weather History Date:

Saturday, November 16, 2019

  Actual Average (WUND) Record (WUND)
Temperature  
Mean Temperature 46 °F -  
Max Temperature 60 °F - - (-1)
Min Temperature 32 °F - - (-1)
Degree Days  
Heating Degree Days 19    
Moisture  
Dew Point 32 °F    
Average Humidity 67    
Maximum Humidity 98    
Minimum Humidity 35    
Precipitation  
Precipitation 0.00 in - - ()
Sea Level Pressure  
Sea Level Pressure 30.13 in    
Wind  
Wind Speed 4 mph ()    
Max Wind Speed 8 mph    
Max Gust Speed -    
Visibility 8.8 miles    
Events      
Averages and records for this station are not official NWS values.
T = Trace of Precipitation, MM = Missing Value Source: Averaged Metar Reports

Daily Weather History Graph

Daily Weather History Graph

Search for Another Location

Airport or City:

Astronomy

Nov. 16, 2019 Rise Set
Actual Time 6:22 AM CST 4:50 PM CST
Civil Twilight 5:55 AM CST 5:16 PM CST
Nautical Twilight 5:26 AM CST 5:46 PM CST
Astronomical Twilight 4:57 AM CST 6:15 PM CST
Moon 8:28 PM CST (11/16) 10:09 AM CST (11/16)
Length of Visible Light 11h 20m
Length of Day
10h 28m
Waning Gibbous, 82% of the Moon is Illuminated
Nov 16
Waning Gibbous
Nov 19
Last Quarter
Nov 26
New
Dec 4
First Quarter
Dec 11
Full

Hourly Weather History & Observations

Time (CST) Temp. Windchill Dew Point Humidity Pressure Visibility Wind Dir Wind Speed Gust Speed Precip Events Conditions
12:15 AM 40.6 °F 37.5 °F 28.2 °F 61% 30.18 in 7.0 mi NW 4.6 mph - N/A   Clear
1:15 AM 39.2 °F 35.9 °F 28.2 °F 65% 30.17 in 10.0 mi NNW 4.6 mph - N/A   Clear
1:35 AM 38.5 °F 35.0 °F 28.2 °F 67% 30.17 in 7.0 mi NW 4.6 mph - N/A   Clear
1:55 AM 38.3 °F 34.8 °F 28.2 °F 67% 30.16 in 7.0 mi NNW 4.6 mph - N/A   Clear
2:15 AM 37.8 °F 34.2 °F 28.4 °F 69% 30.16 in 7.0 mi NNW 4.6 mph - N/A   Clear
2:35 AM 37.4 °F 32.8 °F 28.2 °F 69% 30.16 in 10.0 mi NW 5.8 mph - N/A   Clear
2:55 AM 37.2 °F 34.7 °F 28.4 °F 70% 30.15 in 7.0 mi NNW 3.5 mph - N/A   Clear
3:15 AM 36.9 °F 33.1 °F 28.4 °F 71% 30.16 in 10.0 mi NNW 4.6 mph - N/A   Clear
3:35 AM 36.1 °F 30.6 °F 28.4 °F 73% 30.16 in 10.0 mi NNW 6.9 mph - N/A   Clear
3:55 AM 36.0 °F 31.1 °F 28.4 °F 74% 30.16 in 7.0 mi NNW 5.8 mph - N/A   Clear
4:15 AM 35.4 °F 29.7 °F 28.4 °F 76% 30.16 in 7.0 mi NW 6.9 mph - N/A   Clear
4:35 AM 35.1 °F 29.3 °F 28.4 °F 77% 30.17 in 7.0 mi NNW 6.9 mph - N/A   Clear
5:15 AM 34.3 °F 30.2 °F 28.4 °F 79% 30.17 in 7.0 mi NW 4.6 mph - N/A   Clear
5:35 AM 34.0 °F 28.8 °F 28.4 °F 80% 30.17 in 7.0 mi NNW 5.8 mph - N/A   Clear
5:55 AM 33.8 °F 29.6 °F 28.4 °F 81% 30.17 in 10.0 mi NNW 4.6 mph - N/A   Clear
6:15 AM 33.1 °F 28.7 °F 28.4 °F 83% 30.18 in 10.0 mi NNW 4.6 mph - N/A   Clear
6:35 AM 33.1 °F 27.7 °F 28.4 °F 83% 30.19 in 10.0 mi NW 5.8 mph - N/A   Clear
6:55 AM 32.9 °F 28.5 °F 28.4 °F 84% 30.19 in 10.0 mi NNW 4.6 mph - N/A   Clear
7:15 AM 33.8 °F 30.8 °F 28.8 °F 82% 30.20 in 7.0 mi NW 3.5 mph - N/A   Clear
7:35 AM 34.7 °F 30.6 °F 28.9 °F 79% 30.19 in 10.0 mi NNW 4.6 mph - N/A   Clear
7:55 AM 36.1 °F 33.5 °F 29.3 °F 76% 30.20 in 10.0 mi NNW 3.5 mph - N/A   Clear
8:15 AM 37.6 °F 33.1 °F 29.5 °F 73% 30.19 in 10.0 mi NNW 5.8 mph - N/A   Clear
8:55 AM 40.3 °F 35.5 °F 30.0 °F 67% 30.19 in 7.0 mi North 6.9 mph - N/A   Clear
9:15 AM 41.9 °F 37.5 °F 30.2 °F 63% 30.20 in 7.0 mi North 6.9 mph - N/A   Clear
9:35 AM 43.5 °F 40.1 °F 30.6 °F 60% 30.20 in 7.0 mi North 5.8 mph - N/A   Clear
9:55 AM 44.6 °F 43.1 °F 30.7 °F 58% 30.20 in 10.0 mi NW 3.5 mph - N/A   Clear
10:15 AM 46.4 °F 43.5 °F 31.5 °F 56% 30.19 in 10.0 mi NNW 5.8 mph - N/A   Clear
10:35 AM 47.8 °F - 31.8 °F 54% 30.18 in 10.0 mi NW 3.5 mph - N/A   Clear
10:55 AM 49.3 °F - 32.0 °F 51% 30.17 in 7.0 mi NNW 5.8 mph - N/A   Clear
11:15 AM 50.0 °F - 32.0 °F 50% 30.16 in 10.0 mi North 3.5 mph - N/A   Clear
11:35 AM 52.2 °F - 32.2 °F 47% 30.15 in 10.0 mi Calm Calm - N/A   Clear
11:55 AM 53.1 °F - 32.0 °F 45% 30.13 in 10.0 mi Calm Calm - N/A   Clear
12:15 PM 54.7 °F - 32.5 °F 43% 30.12 in 10.0 mi NW 3.5 mph - N/A   Clear
12:35 PM 55.9 °F - 32.7 °F 41% 30.11 in 10.0 mi NNW 5.8 mph - N/A   Clear
1:15 PM 57.4 °F - 32.0 °F 38% 30.09 in 10.0 mi North 5.8 mph - N/A   Clear
1:35 PM 58.8 °F - 32.7 °F 37% 30.09 in 10.0 mi NW 8.1 mph - N/A   Clear
1:55 PM 59.0 °F - 32.2 °F 36% 30.08 in 10.0 mi North 6.9 mph - N/A   Clear
2:15 PM 59.4 °F - 32.2 °F 36% 30.08 in 7.0 mi NW 8.1 mph - N/A   Clear
2:55 PM 60.1 °F - 32.4 °F 35% 30.08 in 10.0 mi NNW 8.1 mph - N/A   Clear
3:15 PM 59.9 °F - 32.9 °F 36% 30.07 in 10.0 mi NW 4.6 mph - N/A   Clear
3:35 PM 59.5 °F - 32.4 °F 36% 30.07 in 10.0 mi NW 6.9 mph - N/A   Clear
3:55 PM 59.0 °F - 32.9 °F 37% 30.07 in 10.0 mi NW 4.6 mph - N/A   Clear
4:15 PM 58.1 °F - 33.3 °F 39% 30.07 in 10.0 mi NW 6.9 mph - N/A   Clear
4:55 PM 54.7 °F - 34.9 °F 47% 30.08 in 10.0 mi WNW 4.6 mph - N/A   Clear
5:15 PM 53.2 °F - 34.7 °F 49% 30.09 in 10.0 mi WNW 4.6 mph - N/A   Clear
5:35 PM 52.2 °F - 34.7 °F 51% 30.09 in 10.0 mi WNW 3.5 mph - N/A   Clear
6:15 PM 45.7 °F - 36.1 °F 69% 30.09 in 10.0 mi Calm Calm - N/A   Clear
6:35 PM 44.4 °F - 36.5 °F 74% 30.09 in 10.0 mi Calm Calm - N/A   Clear
6:55 PM 42.8 °F - 36.0 °F 77% 30.09 in 10.0 mi Calm Calm - N/A   Clear
7:15 PM 41.5 °F - 36.1 °F 81% 30.10 in 10.0 mi Calm Calm - N/A   Clear
7:35 PM 40.3 °F - 35.8 °F 84% 30.09 in 10.0 mi Calm Calm - N/A   Clear
7:55 PM 39.4 °F - 35.6 °F 86% 30.09 in 10.0 mi Calm Calm - N/A   Clear
8:15 PM 38.3 °F - 35.6 °F 90% 30.09 in 10.0 mi Calm Calm - N/A   Clear
8:55 PM 37.2 °F - 34.7 °F 91% 30.10 in 7.0 mi Calm Calm - N/A   Clear
9:15 PM 36.7 °F - 34.5 °F 92% 30.09 in 10.0 mi Calm Calm - N/A   Clear
9:35 PM 36.1 °F - 34.3 °F 93% 30.09 in 7.0 mi Calm Calm - N/A   Clear
9:55 PM 35.6 °F - 33.8 °F 93% 30.09 in 7.0 mi Calm Calm - N/A   Clear
10:15 PM 34.9 °F - 33.4 °F 94% 30.09 in 7.0 mi Calm Calm - N/A   Clear
10:35 PM 34.7 °F - 33.3 °F 94% 30.09 in 7.0 mi Calm Calm - N/A   Clear
10:55 PM 33.8 °F - 32.9 °F 96% 30.09 in 7.0 mi Calm Calm - N/A   Clear
11:35 PM 33.1 °F - 32.2 °F 96% 30.09 in 7.0 mi Calm Calm - N/A   Clear
11:55 PM 32.5 °F - 32.0 °F 98% 30.09 in 7.0 mi Calm Calm - N/A   Clear